This is the latest recevied weather packets stored in our database for station/object DB0RV-13. If no packets are shown the sender has not sent any weather packets the latest 10 day(s).
| Time | Temp. | Humidity | Pressure | Rain* | Wind** | Luminosity | Snow |
|---|---|---|---|---|---|---|---|
| 1778009702 | 11.11° C | 90% | 1009 hPa | - | - | - | - |
| 1778009402 | 11.11° C | 90% | 1008.8 hPa | - | - | - | - |
| 1778009101 | 11.11° C | 89% | 1008.8 hPa | - | - | - | - |
| 1778008802 | 11.11° C | 89% | 1008.7 hPa | - | - | - | - |
| 1778008501 | 11.11° C | 88% | 1008.7 hPa | - | - | - | - |
| 1778008202 | 11.67° C | 85% | 1008.7 hPa | - | - | - | - |
| 1778007902 | 11.67° C | 81% | 1008.7 hPa | - | - | - | - |
| 1778007602 | 11.67° C | 83% | 1008.5 hPa | - | - | - | - |
| 1778007302 | 11.67° C | 85% | 1008.8 hPa | - | - | - | - |
| 1778007002 | 11.67° C | 83% | 1008.6 hPa | - | - | - | - |
| 1778006702 | 11.67° C | 82% | 1008.6 hPa | - | - | - | - |
| 1778006401 | 12.22° C | 79% | 1008.4 hPa | - | - | - | - |
| 1778006102 | 12.78° C | 75% | 1008.4 hPa | - | - | - | - |
| 1778005802 | 13.33° C | 72% | 1008.2 hPa | - | - | - | - |
| 1778005502 | 13.89° C | 70% | 1008 hPa | - | - | - | - |
| 1778005201 | 13.89° C | 70% | 1008.1 hPa | - | - | - | - |
| 1778004902 | 13.89° C | 69% | 1007.9 hPa | - | - | - | - |
| 1778004602 | 14.44° C | 69% | 1007.7 hPa | - | - | - | - |
| 1778004302 | 14.44° C | 69% | 1007.7 hPa | - | - | - | - |
| 1778004002 | 15° C | 69% | 1007.5 hPa | - | - | - | - |
| 1778003701 | 15° C | 68% | 1007.6 hPa | - | - | - | - |
| 1778003402 | 15° C | 67% | 1007.4 hPa | - | - | - | - |
| 1778003103 | 15° C | 66% | 1007.4 hPa | - | - | - | - |
| 1778002802 | 15° C | 65% | 1007.4 hPa | - | - | - | - |
| 1778002501 | 15° C | 64% | 1007.4 hPa | - | - | - | - |
* Rain since midnight (hover to see other rain measurements)
** Current wind speed in m/s (hover to see current wind gust speed)